CW8633 Weather Reports


Display with metric or nautical units.
time (UTC)temp
F
wind
direction
speed
MPH
gust
MPH
rain 1hr
in
rain 24hr
in
rain mn
in
humidity
%
barometer
mb
20260509124731 53 60 8.0 14.0 0.00 0.00 0.00 39 1016.4
20260509123719 49 20 3.0 8.0 0.00 0.00 0.00 44 1016.3
20260509122727 49 336 2.0 5.0 0.00 0.00 0.00 50 1016.2
20260509121716 48 27 2.0 5.0 0.00 0.00 0.00 48 1016.1
20260509120740 48 65 3.0 6.0 0.00 0.00 0.00 50 1016.2
20260509115719 49 327 1.0 8.0 0.00 0.00 0.00 51 1016.2
20260509114728 51 72 4.0 8.0 0.00 0.00 0.00 43 1016.0
20260509113719 51 67 2.0 5.0 0.00 0.00 0.00 44 1015.9
20260509112728 51 74 4.0 10.0 0.00 0.00 0.00 42 1015.8
20260509111721 53 134 5.0 9.0 0.00 0.00 0.00 39 1015.5
20260509110747 51 103 5.0 7.0 0.00 0.00 0.00 40 1015.6
20260509105737 50 69 3.0 6.0 0.00 0.00 0.00 44 1015.6
20260509104744 51 12 2.0 5.0 0.00 0.00 0.00 46 1015.4
20260509103733 50 63 1.0 6.0 0.00 0.00 0.00 44 1015.4
20260509102743 50 58 2.0 5.0 0.00 0.00 0.00 47 1015.4
20260509101755 50 55 2.0 5.0 0.00 0.00 0.00 45 1015.3
20260509100741 51 13 1.0 5.0 0.00 0.00 0.00 44 1015.3
20260509095730 51 130 2.0 3.0 0.00 0.00 0.00 45 1015.0
20260509094738 51 130 2.0 6.0 0.00 0.00 0.00 42 1014.9
20260509093749 54 182 1.0 5.0 0.00 0.00 0.00 44 1014.9
20260509092736 55 71 0.0 2.0 0.00 0.00 0.00 38 1014.9
20260509091745 56 71 2.0 6.0 0.00 0.00 0.00 34 1014.8
20260509090731 57 148 5.0 7.0 0.00 0.00 0.00 34 1014.6
20260509085806 57 183 2.0 9.0 0.00 0.00 0.00 32 1014.8
20260509084732 55 169 4.0 7.0 0.00 0.00 0.00 35 1014.6
20260509083758 56 146 3.0 5.0 0.00 0.00 0.00 37 1014.8
20260509082745 57 177 3.0 4.0 0.00 0.00 0.00 35 1014.6
20260509081731 58 215 1.0 6.0 0.00 0.00 0.00 32 1014.7
20260509080742 57 105 1.0 5.0 0.00 0.00 0.00 32 1014.5
20260509075736 56 173 4.0 6.0 0.00 0.00 0.00 35 1014.4
20260509074744 56 168 5.0 7.0 0.00 0.00 0.00 37 1014.4
20260509073730 58 154 2.0 5.0 0.00 0.00 0.00 43 1014.4
20260509072740 58 153 3.0 7.0 0.00 0.00 0.00 34 1014.4
20260509071727 58 148 4.0 5.0 0.00 0.00 0.00 34 1014.3
20260509070733 58 144 6.0 9.0 0.00 0.00 0.00 34 1014.3
20260509065745 58 154 6.0 8.0 0.00 0.00 0.00 37 1014.2
20260509064732 57 141 3.0 8.0 0.00 0.00 0.00 39 1014.2
20260509063742 56 152 5.0 7.0 0.00 0.00 0.00 39 1014.1
20260509062729 56 162 3.0 6.0 0.00 0.00 0.00 42 1014.0
20260509061736 55 163 4.0 7.0 0.00 0.00 0.00 43 1013.9
20260509060739 54 67 0.0 3.0 0.00 0.00 0.00 47 1013.9
20260509055731 54 67 2.0 5.0 0.00 0.00 0.00 47 1013.8
20260509054743 55 67 3.0 4.0 0.00 0.00 0.00 44 1013.8
20260509053731 55 67 0.0 1.0 0.00 0.00 0.00 42 1013.7
20260509052757 54 67 0.0 5.0 0.00 0.00 0.00 47 1013.7
20260509051742 54 66 4.0 6.0 0.00 0.00 0.00 46 1013.8
20260509050730 55 147 3.0 5.0 0.00 0.00 0.00 47 1013.8
20260509045741 56 175 1.0 4.0 0.00 0.00 0.00 45 1013.9
20260509044726 57 169 0.0 5.0 0.00 0.00 0.00 41 1013.8
20260509043734 59 88 4.0 6.0 0.00 0.00 0.00 37 1013.5
20260509042741 61 79 1.0 6.0 0.00 0.00 0.00 33 1013.5
20260509041754 62 79 4.0 8.0 0.00 0.00 0.00 31 1013.0
20260509040800 62 88 8.0 10.0 0.00 0.00 0.00 31 1013.2
20260509035732 61 105 5.0 7.0 0.00 0.00 0.00 32 1013.2
20260509034741 60 81 4.0 5.0 0.00 0.00 0.00 35 1013.3
20260509033733 61 78 3.0 5.0 0.00 0.00 0.00 36 1013.3
20260509032741 61 97 4.0 7.0 0.00 0.00 0.00 33 1013.2
20260509031729 62 101 1.0 3.0 0.00 0.00 0.00 34 1013.1
20260509030738 63 101 2.0 9.0 0.00 0.00 0.00 31 1013.0
20260509025737 63 103 5.0 8.0 0.00 0.00 0.00 32 1013.0
20260509024743 64 96 4.0 6.0 0.00 0.00 0.00 36 1012.9
20260509023730 66 93 0.0 4.0 0.00 0.00 0.00 30 1012.8
20260509022734 67 93 2.0 6.0 0.00 0.00 0.00 30 1012.6
20260509021743 67 107 3.0 6.0 0.00 0.00 0.00 29 1012.6
20260509020729 69 43 1.0 4.0 0.00 0.00 0.00 30 1012.4
20260509015743 70 360 2.0 4.0 0.00 0.00 0.00 30 1012.3
20260509014730 71 350 0.0 4.0 0.00 0.00 0.00 29 1012.1
20260509013735 72 350 1.0 5.0 0.00 0.00 0.00 27 1012.1
20260509012744 73 348 2.0 8.0 0.00 0.00 0.00 27 1011.9
20260509011731 74 360 3.0 5.0 0.00 0.00 0.00 24 1011.9
20260509010738 75 355 4.0 12.0 0.00 0.00 0.00 23 1011.8
20260509005727 76 5 4.0 11.0 0.00 0.00 0.00 22 1011.8
20260509004738 76 345 8.0 14.0 0.00 0.00 0.00 21 1011.7
20260509003745 77 344 7.0 15.0 0.00 0.00 0.00 20 1011.8
20260509002732 77 306 5.0 15.0 0.00 0.00 0.00 23 1011.9
20260509001737 77 355 6.0 10.0 0.00 0.00 0.00 22 1011.9
20260509000759 77 333 7.0 16.0 0.00 0.00 0.00 20 1012.0
20260508235756 77 315 7.0 13.0 0.00 0.00 0.00 20 1012.0
20260508234742 77 311 7.0 14.0 0.00 0.00 0.00 20 1012.1
20260508233745 76 337 7.0 14.0 0.00 0.00 0.00 21 1012.1
20260508232734 76 271 6.0 10.0 0.00 0.00 0.00 25 1012.1
20260508231726 75 213 4.0 12.0 0.00 0.00 0.00 27 1012.2
20260508230735 76 255 5.0 14.0 0.00 0.00 0.00 28 1012.2
20260508225727 75 215 7.0 11.0 0.00 0.00 0.00 26 1012.2
20260508224734 76 221 5.0 16.0 0.00 0.00 0.00 26 1012.3
20260508223800 76 299 5.0 10.0 0.00 0.00 0.00 25 1012.2
20260508222731 75 289 5.0 11.0 0.00 0.00 0.00 26 1012.5
20260508221739 75 267 8.0 11.0 0.00 0.00 0.00 24 1012.6
20260508220726 75 290 2.0 13.0 0.00 0.00 0.00 27 1012.7
20260508215741 74 331 7.0 13.0 0.00 0.00 0.00 25 1012.8
20260508214734 74 295 3.0 10.0 0.00 0.00 0.00 26 1013.0
20260508213800 75 284 6.0 16.0 0.00 0.00 0.00 26 1013.2
20260508212805 75 5 8.0 15.0 0.00 0.00 0.00 25 1013.2
20260508211731 74 284 5.0 11.0 0.00 0.00 0.00 26 1013.3
20260508210743 74 234 9.0 14.0 0.00 0.00 0.00 24 1013.3
20260508205740 74 238 5.0 19.0 0.00 0.00 0.00 27 1013.5
20260508204805 73 171 2.0 6.0 0.00 0.00 0.00 28 1013.6
20260508203729 73 278 0.0 10.0 0.00 0.00 0.00 29 1013.7
20260508202741 73 271 4.0 7.0 0.00 0.00 0.00 27 1013.8
20260508201806 74 17 3.0 10.0 0.00 0.00 0.00 28 1014.0
20260508200750 74 294 7.0 13.0 0.00 0.00 0.00 27 1014.0
20260508195742 73 238 3.0 11.0 0.00 0.00 0.00 30 1014.0
20260508194747 72 236 1.0 12.0 0.00 0.00 0.00 28 1014.1
20260508193754 71 209 2.0 11.0 0.00 0.00 0.00 31 1014.3
20260508192742 71 291 3.0 11.0 0.00 0.00 0.00 31 1014.4
20260508191730 69 257 4.0 8.0 0.00 0.00 0.00 31 1014.5
20260508190738 69 202 3.0 9.0 0.00 0.00 0.00 32 1014.6
20260508185730 68 229 3.0 8.0 0.00 0.00 0.00 33 1014.6
20260508184743 68 193 5.0 9.0 0.00 0.00 0.00 31 1014.8
20260508183730 69 186 2.0 13.0 0.00 0.00 0.00 33 1014.9
20260508182738 68 178 3.0 9.0 0.00 0.00 0.00 34 1014.9
20260508181803 68 204 2.0 8.0 0.00 0.00 0.00 33 1015.1
20260508180744 67 111 6.0 10.0 0.00 0.00 0.00 33 1015.2
20260508175740 67 126 4.0 8.0 0.00 0.00 0.00 32 1015.4
20260508174740 67 220 3.0 11.0 0.00 0.00 0.00 34 1015.4
20260508173726 66 171 5.0 10.0 0.00 0.00 0.00 31 1015.4
20260508172732 66 206 4.0 10.0 0.00 0.00 0.00 33 1015.4
20260508171738 66 212 4.0 8.0 0.00 0.00 0.00 33 1015.4
20260508170729 65 155 6.0 9.0 0.00 0.00 0.00 33 1015.5
20260508165757 64 173 6.0 10.0 0.00 0.00 0.00 37 1015.5
20260508164741 64 205 6.0 11.0 0.00 0.00 0.00 39 1015.4
20260508163745 63 185 7.0 11.0 0.00 0.00 0.00 41 1015.4
20260508162731 61 185 5.0 10.0 0.00 0.00 0.00 49 1015.4
20260508161738 60 192 5.0 10.0 0.00 0.00 0.00 56 1015.4
20260508160741 59 222 5.0 7.0 0.00 0.00 0.00 57 1015.4
20260508155731 58 205 3.0 7.0 0.00 0.00 0.00 56 1015.5
20260508154735 57 173 5.0 7.0 0.00 0.00 0.00 56 1015.5
20260508153744 56 200 4.0 6.0 0.00 0.00 0.00 56 1015.6
20260508152729 55 196 3.0 4.0 0.00 0.00 0.00 58 1015.6
20260508151735 55 244 2.0 5.0 0.00 0.00 0.00 66 1015.6
20260508150741 54 236 3.0 5.0 0.00 0.00 0.00 67 1015.5
20260508145733 52 252 1.0 2.0 0.00 0.00 0.00 69 1015.4
20260508144738 51 252 0.0 2.0 0.00 0.00 0.00 71 1015.3
20260508143741 51 252 1.0 3.0 0.00 0.00 0.00 72 1015.4
20260508142805 50 300 1.0 2.0 0.00 0.00 0.00 72 1015.3
20260508141735 49 319 0.0 3.0 0.00 0.00 0.00 75 1015.3
20260508140759 47 319 1.0 2.0 0.00 0.00 0.00 76 1015.3
20260508135801 46 316 1.0 2.0 0.00 0.00 0.00 76 1015.2
20260508134745 45 322 0.0 2.0 0.00 0.00 0.00 78 1015.1
20260508133730 44 322 1.0 4.0 0.00 0.00 0.00 77 1014.9
20260508132738 44 281 0.0 2.0 0.00 0.00 0.00 77 1014.8
20260508131743 44 281 0.0 4.0 0.00 0.00 0.00 78 1014.7
20260508130727 43 22 0.0 2.0 0.00 0.00 0.00 77 1014.6
20260508125736 43 22 0.0 3.0 0.00 0.00 0.00 77 1014.4